Temp
5 5 6 5 5 5 5 5 5 5 5 5 5 5 5 4 4 3 2 1 0 0 1 -0 -1 -3 -4 -5 -6 -7 -7 -7 -7 -8 -8 -9 -9 -11 -10 -10 -10 -10 -8 -7 -6 -5 -4
5 5 5 5 5 5 5 5 5 5 4 4 4 4 4 4 4 3 2 1 1 0 0 -1 -3 -4 -6 -4 -7 -7 -7 -7 -7 -8 -9 -10 -10 -11 -12 -10 -10 -10 -9 -8 -9 -5 -6
5 5 5 5 5 5 5 4 4 4 4 4 4 4 4 4 4 3 2 1 0 -0 -0 -2 -3 -5 -6 -7 -7 -7 -7 -8 -8 -9 -10 -11 -11 -12 -11 -11 -10 -10 -10 -10 -10 -7 -6
5 5 4 5 5 5 5 5 4 4 4 4 3 3 3 3 4 3 2 1 0 -0 -1 -3 -4 -4 -6 -8 -7 -6 -7 -8 -9 -10 -10 -10 -10 -10 -11 -11 -11 -11 -11 -10 -8 -7 -7
4 4 4 4 5 4 4 4 4 4 4 3 3 3 3 3 3 3 2 2 0 -1 -2 -3 -5 -5 -6 -7 -6 -8 -8 -8 -9 -9 -10 -10 -10 -11 -11 -11 -11 -11 -11 -10 -8 -7 -6
4 4 4 4 4 4 4 4 4 4 3 3 3 3 3 3 3 3 2 1 -0 -1 -2 -3 -5 -5 -6 -7 -7 -8 -8 -9 -9 -10 -10 -11 -11 -11 -11 -12 -12 -11 -11 -10 -10 -8 -7
4 4 4 4 4 4 4 4 4 3 3 3 3 3 2 3 3 2 2 1 0 -1 -2 -4 -5 -5 -7 -6 -8 -7 -8 -9 -9 -10 -11 -11 -11 -11 -12 -12 -11 -11 -11 -10 -10 -9 -7
4 4 3 4 4 4 4 4 3 3 3 2 2 2 2 2 2 2 1 1 -0 -1 -2 -4 -5 -5 -6 -8 -7 -6 -8 -9 -9 -10 -10 -11 -12 -12 -12 -11 -11 -11 -10 -9 -9 -9 -8
4 4 3 3 4 4 4 4 3 3 3 2 2 2 2 2 2 2 1 1 -1 -1 -3 -4 -5 -5 -6 -8 -9 -9 -9 -9 -10 -10 -11 -12 -12 -12 -11 -11 -11 -11 -10 -10 -10 -9 -7
4 4 3 3 3 4 4 4 3 3 3 2 2 2 1 2 2 2 2 1 -1 -2 -3 -3 -4 -6 -6 -8 -9 -9 -9 -9 -10 -10 -11 -12 -12 -11 -11 -12 -12 -11 -11 -10 -9 -9 -8
4 4 3 3 3 3 3 3 3 3 3 2 2 1 1 1 1 1 1 1 -1 -2 -7 -4 -4 -5 -6 -9 -8 -9 -9 -9 -10 -11 -12 -12 -11 -11 -11 -12 -12 -11 -10 -10 -9 -9 -8
3 3 3 3 3 3 3 3 3 2 2 2 2 1 1 1 1 1 1 0 -0 -2 -7 -4 -5 -5 -5 -8 -8 -9 -9 -7 -8 -9 -10 -11 -11 -12 -12 -12 -11 -10 -9 -9 -9 -8 -8
3 3 3 3 2 2 2 3 3 2 2 2 2 1 1 1 1 1 1 -0 -1 -4 -5 -4 -5 -6 -7 -7 -7 -8 -9 -9 -11 -10 -11 -10 -11 -12 -11 -10 -10 -10 -9 -12 -11 -11 -8
2 2 2 2 2 2 2 2 3 2 2 2 1 1 1 1 0 0 0 -0 -3 -5 -5 -5 -5 -5 -7 -7 -7 -8 -8 -10 -11 -11 -12 -12 -11 -12 -11 -12 -12 -11 -11 -12 -15 -12 -8
2 2 2 1 2 2 2 2 2 2 2 2 2 1 1 1 -0 -0 0 -2 -5 -5 -5 -5 -6 -6 -6 -7 -8 -8 -10 -10 -11 -11 -12 -13 -10 -10 -11 -12 -10 -11 -11 -11 -12 -8 -8
2 2 1 1 1 1 2 2 2 2 2 2 2 1 1 1 -0 -0 -0 -3 -4 -4 -5 -5 -6 -7 -7 -7 -7 -8 -9 -9 -10 -11 -11 -11 -11 -10 -10 -9 -10 -11 -11 -11 -10 -14 -14
2 1 0 0 1 1 1 2 2 2 2 2 1 1 1 1 -0 -0 -1 -3 -4 -4 -5 -5 -6 -6 -7 -7 -7 -8 -9 -10 -9 -9 -10 -10 -11 -9 -11 -11 -12 -10 -12 -10 -10 -10 -10
1 1 1 -0 -0 0 0 1 2 2 2 2 1 1 -0 0 0 -1 -2 -3 -4 -4 -5 -5 -6 -6 -7 -7 -7 -8 -9 -9 -9 -10 -9 -10 -10 -10 -10 -10 -11 -11 -11 -11 -11 -11 -11
1 1 1 0 -0 0 0 0 1 2 2 2 1 1 -0 -1 -1 -1 -2 -3 -4 -4 -5 -5 -6 -6 -6 -7 -8 -7 -8 -8 -9 -10 -9 -9 -9 -11 -9 -10 -9 -11 -11 -11 -11 -11 -12
1 0 0 0 -0 -0 -0 -0 0 1 1 1 1 0 0 -0 -1 -2 -2 -3 -4 -4 -4 -5 -6 -6 -6 -6 -7 -7 -7 -8 -8 -9 -9 -9 -10 -11 -13 -11 -12 -11 -11 -11 -10 -10 -12
1 1 0 -0 -1 -1 -1 -0 -1 -0 0 0 1 -0 -1 -1 -1 -2 -2 -3 -3 -4 -4 -5 -6 -6 -7 -7 -7 -7 -6 -7 -7 -8 -9 -9 -10 -10 -10 -10 -11 -11 -10 -11 -11 -11 -11
1 1 0 -1 -1 -2 -1 -1 -1 -1 -1 0 0 -0 -1 -1 -1 -1 -2 -2 -3 -4 -4 -5 -5 -6 -6 -7 -7 -6 -6 -6 -7 -7 -8 -9 -10 -9 -9 -10 -10 -10 -10 -10 -10 -11 -11
1 0 -0 -0 -1 -2 -2 -1 -1 -1 -1 -1 -1 -0 -0 -1 -1 -1 -3 -4 -4 -4 -4 -5 -5 -6 -6 -6 -6 -5 -6 -6 -7 -7 -8 -9 -10 -10 -9 -10 -10 -10 -9 -9 -10 -10 -11
0 0 -0 -1 -2 -3 -3 -2 -2 -1 -1 -2 -2 -1 -0 -1 -1 -2 -2 -3 -3 -4 -4 -5 -5 -6 -5 -5 -5 -4 -5 -6 -6 -7 -8 -9 -10 -10 -10 -10 -14 -9 -9 -9 -9 -9 -9
0 0 -0 -1 -2 -3 -2 -2 -1 -1 -2 -2 -2 -2 -1 -1 -1 -1 -2 -2 -3 -4 -4 -4 -4 -5 -5 -4 -5 -5 -6 -6 -6 -6 -7 -9 -10 -11 -11 -11 -9 -8 -8 -9 -10 -9 -10
-1 -0 -0 -2 -2 -3 -3 -2 -2 -2 -2 -2 -2 -2 -2 -1 -1 -1 -1 -2 -3 -3 -2 -3 -3 -4 -4 -5 -6 -6 -6 -6 -7 -7 -7 -8 -9 -11 -12 -13 -15 -8 -8 -9 -9 -9 -10
-1 -0 -1 -2 -2 -2 -3 -3 -3 -2 -2 -2 -2 -2 -1 -1 -1 -1 -2 -2 -3 -3 -2 -2 -3 -3 -4 -5 -7 -7 -7 -7 -7 -7 -7 -8 -9 -10 -11 -11 -8 -7 -8 -9 -10 -9 -10
-1 -1 -1 -1 -3 -2 -2 -2 -2 -2 -3 -3 -2 -2 -2 -1 -1 -1 -1 -2 -3 -2 -2 -3 -3 -4 -5 -6 -7 -7 -9 -8 -8 -7 -8 -8 -9 -9 -11 -12 -10 -8 -9 -9 -9 -10 -10
-1 -1 -0 -1 -2 -2 -2 -2 -3 -4 -3 -3 -3 -2 -1 -1 -1 -1 -2 -2 -2 -1 -1 -1 -2 -3 -4 -5 -6 -8 -8 -8 -8 -9 -8 -8 -8 -9 -9 -7 -7 -8 -8 -9 -9 -10 -10
Height
3161 3158 3155 3152 3149 3145 3142 3139 3135 3131 3127 3123 3119 3114 3109 3104 3099 3095 3090 3086 3081 3077 3073 3066 3059 3048 3043 3039 3035 3033 3028 3022 3017 3013 3009 3005 3004 3005 3004 3006 3009 3004 3006 3006 3007 3012 3018
3163 3160 3157 3154 3150 3147 3143 3140 3136 3132 3128 3124 3119 3114 3110 3104 3099 3094 3089 3085 3082 3079 3072 3067 3057 3046 3044 3040 3034 3030 3024 3019 3012 3007 3003 2999 2997 2997 2996 3002 3002 3002 3003 3002 3001 3003 3008
3166 3163 3159 3155 3152 3148 3145 3141 3137 3133 3129 3124 3119 3115 3109 3104 3099 3094 3089 3084 3081 3079 3070 3065 3055 3046 3043 3037 3032 3027 3021 3016 3009 3003 2999 2996 2993 2993 2996 2998 2999 3001 2997 2996 2995 3002 3004
3167 3164 3161 3157 3153 3149 3145 3141 3137 3133 3129 3125 3120 3115 3110 3104 3098 3093 3089 3083 3081 3078 3072 3062 3054 3048 3044 3037 3033 3028 3021 3015 3008 3002 2997 2994 2992 2992 2994 2996 2995 2997 2995 2994 2997 3002 3004
3168 3165 3161 3158 3154 3150 3146 3142 3138 3134 3130 3125 3120 3115 3110 3104 3097 3091 3088 3083 3081 3078 3069 3062 3054 3048 3042 3042 3036 3027 3019 3013 3006 3000 2997 2995 2994 2994 2995 2994 2994 2993 2992 2994 2995 2996 2999
3170 3165 3162 3158 3154 3151 3147 3143 3139 3135 3131 3126 3121 3116 3110 3105 3097 3091 3088 3082 3080 3078 3073 3059 3054 3051 3046 3035 3032 3027 3018 3011 3005 3000 2998 2996 2995 2994 2994 2993 2991 2991 2992 2992 2993 2993 2994
3171 3167 3163 3159 3155 3151 3148 3143 3139 3135 3130 3126 3121 3116 3110 3104 3097 3091 3087 3081 3081 3080 3073 3061 3059 3053 3047 3041 3036 3026 3015 3013 3007 3003 2999 2998 2996 2993 2991 2990 2987 2990 2989 2990 2990 2991 2990
3172 3168 3164 3160 3156 3152 3148 3144 3139 3134 3129 3125 3121 3117 3111 3104 3096 3090 3085 3081 3077 3075 3071 3063 3064 3060 3051 3039 3036 3028 3019 3013 3007 3003 3001 2998 2994 2992 2988 2987 2987 2987 2987 2988 2989 2987 2988
3173 3169 3165 3161 3157 3153 3149 3145 3140 3135 3130 3125 3121 3116 3111 3105 3099 3093 3087 3081 3075 3072 3070 3064 3063 3059 3048 3042 3034 3026 3021 3015 3010 3005 3001 2999 2996 2991 2985 2984 2984 2984 2984 2986 2987 2984 2986
3174 3170 3165 3162 3158 3154 3150 3145 3140 3135 3130 3125 3121 3117 3111 3105 3101 3093 3088 3081 3074 3073 3072 3073 3068 3062 3054 3045 3040 3032 3025 3018 3012 3007 3002 3001 2997 2991 2987 2985 2984 2983 2983 2984 2986 2986 2985
3174 3170 3166 3162 3159 3154 3150 3145 3141 3135 3131 3125 3121 3116 3111 3104 3099 3094 3089 3083 3076 3075 3077 3079 3072 3065 3059 3048 3043 3033 3029 3020 3013 3009 3008 3004 2996 2991 2986 2985 2984 2984 2983 2984 2985 2983 2984
3175 3171 3167 3163 3160 3155 3151 3146 3141 3135 3130 3125 3120 3116 3110 3106 3100 3094 3088 3084 3080 3078 3082 3082 3077 3067 3059 3049 3046 3038 3029 3023 3015 3011 3007 3003 3001 2995 2990 2986 2985 2983 2981 2982 2984 2986 2985
3176 3172 3168 3164 3160 3156 3151 3146 3141 3136 3130 3125 3120 3116 3112 3107 3100 3094 3090 3084 3083 3084 3090 3085 3074 3066 3059 3051 3046 3038 3030 3019 3015 3011 3006 3003 3002 2996 2993 2988 2986 2984 2983 2984 2989 2991 2987
3176 3173 3168 3164 3159 3155 3151 3146 3140 3135 3129 3124 3120 3116 3112 3107 3100 3096 3092 3087 3085 3092 3088 3083 3076 3070 3060 3054 3049 3042 3036 3028 3024 3020 3015 3010 3004 3001 2999 2993 2990 2987 2986 2987 2999 2992 2986
3176 3173 3169 3164 3159 3154 3150 3146 3141 3136 3129 3124 3120 3117 3112 3106 3102 3098 3095 3085 3093 3089 3086 3080 3073 3066 3063 3058 3052 3044 3038 3034 3030 3025 3023 3017 3015 3011 3005 2998 2993 2990 2990 2991 2990 2987 2989
3176 3173 3169 3164 3160 3154 3150 3146 3141 3137 3131 3125 3121 3117 3113 3107 3104 3101 3095 3091 3093 3090 3085 3079 3073 3069 3064 3059 3055 3048 3043 3039 3035 3031 3027 3024 3017 3013 3008 3003 2999 2994 2995 2995 2993 3001 3005
3176 3173 3169 3164 3160 3155 3150 3146 3141 3137 3132 3125 3121 3118 3114 3109 3105 3101 3094 3095 3092 3089 3085 3081 3076 3071 3067 3061 3056 3050 3048 3043 3040 3033 3028 3024 3023 3019 3011 3007 3005 2998 2997 2998 2999 2999 2999
3175 3172 3168 3164 3160 3156 3151 3146 3141 3137 3132 3127 3121 3118 3114 3109 3107 3098 3096 3095 3093 3090 3086 3082 3077 3071 3066 3061 3056 3052 3050 3046 3041 3036 3030 3026 3023 3017 3017 3015 3012 3008 3005 3002 3001 3005 3004
3175 3172 3168 3164 3160 3156 3151 3146 3141 3136 3132 3127 3122 3118 3114 3109 3105 3101 3099 3096 3093 3088 3084 3080 3076 3073 3068 3063 3059 3053 3050 3047 3044 3039 3034 3032 3028 3021 3017 3018 3015 3010 3009 3007 3004 3004 3004
3174 3171 3168 3164 3160 3155 3151 3147 3141 3136 3131 3127 3123 3119 3114 3110 3106 3102 3098 3096 3092 3088 3084 3081 3078 3074 3069 3064 3060 3055 3051 3047 3044 3041 3036 3032 3030 3028 3027 3022 3019 3014 3012 3011 3009 3006 3005
3172 3169 3166 3163 3159 3155 3151 3146 3142 3136 3131 3128 3124 3121 3116 3111 3107 3103 3099 3095 3091 3087 3083 3080 3076 3073 3069 3063 3059 3054 3050 3048 3045 3041 3038 3034 3030 3027 3025 3021 3019 3015 3013 3010 3009 3007 3006
3170 3167 3165 3162 3157 3153 3150 3146 3141 3136 3132 3129 3123 3120 3117 3112 3108 3103 3100 3095 3091 3087 3083 3079 3075 3070 3067 3063 3060 3053 3050 3047 3044 3040 3037 3033 3031 3025 3022 3021 3018 3014 3013 3010 3008 3006 3004
3167 3165 3163 3160 3155 3151 3147 3143 3139 3135 3131 3126 3123 3120 3117 3113 3108 3103 3099 3093 3089 3084 3080 3076 3072 3068 3066 3062 3057 3051 3047 3044 3042 3040 3037 3034 3030 3025 3021 3019 3016 3014 3011 3009 3007 3004 3003
3164 3162 3160 3157 3153 3149 3146 3142 3138 3134 3130 3127 3123 3120 3115 3112 3107 3103 3098 3093 3089 3084 3078 3073 3068 3064 3062 3057 3053 3048 3044 3042 3040 3038 3036 3034 3030 3026 3022 3018 3019 3010 3009 3008 3005 3001 2999
3160 3159 3157 3155 3151 3147 3144 3141 3137 3133 3129 3125 3121 3118 3113 3109 3105 3102 3096 3091 3087 3081 3073 3070 3067 3063 3058 3054 3048 3044 3042 3042 3039 3036 3034 3031 3029 3027 3023 3019 3012 3007 3006 3005 3002 3000 2997
3155 3155 3154 3151 3149 3145 3142 3138 3135 3131 3128 3123 3120 3116 3112 3107 3104 3099 3093 3089 3083 3076 3071 3068 3064 3059 3056 3051 3049 3046 3044 3042 3037 3034 3031 3027 3025 3024 3020 3017 3012 3003 3002 3001 2999 2996 2995
3150 3150 3149 3147 3145 3143 3140 3136 3132 3129 3126 3123 3118 3114 3109 3104 3100 3097 3092 3087 3081 3074 3070 3065 3061 3057 3054 3051 3047 3045 3042 3041 3035 3031 3025 3023 3020 3018 3015 3013 3002 3000 2999 2999 2999 3000 2992
3145 3145 3144 3143 3142 3139 3136 3133 3129 3126 3123 3120 3116 3111 3107 3101 3097 3092 3089 3084 3078 3073 3068 3065 3061 3054 3050 3048 3046 3044 3038 3036 3031 3027 3023 3021 3018 3014 3012 3008 3000 2998 2997 2997 2994 2990 2988
3140 3140 3140 3140 3138 3135 3132 3129 3126 3122 3120 3116 3113 3109 3104 3099 3095 3088 3085 3080 3076 3070 3066 3063 3060 3054 3051 3048 3045 3041 3037 3032 3026 3022 3017 3015 3016 3013 3010 3001 2997 2994 2992 2991 2988 2986 2983
Wind_Speed
23 23 24 24 24 23 23 24 25 26 26 28 29 30 30 30 28 28 31 20 24 37 41 45 45 43 41 30 25 24 26 26 26 26 23 22 22 17 17 18 22 22 25 34 37 42 36
22 23 24 24 24 24 24 24 25 26 26 28 30 30 29 30 28 28 32 22 19 37 40 46 41 44 37 32 26 28 25 28 27 26 21 16 19 17 20 19 22 27 29 29 30 40 35
23 23 24 24 24 24 24 24 25 26 26 28 30 31 31 31 29 27 31 23 15 37 41 46 42 43 39 36 31 33 29 28 26 23 15 15 13 12 12 13 16 16 22 24 22 30 25
23 24 24 24 24 25 25 25 24 25 25 27 29 30 31 31 31 26 31 24 11 33 43 43 45 45 41 28 29 31 28 27 19 16 16 16 7 4 10 12 14 14 15 20 16 21 17
24 24 23 24 24 25 25 25 25 25 24 25 27 30 31 31 32 28 30 22 10 29 45 34 48 37 43 24 23 36 26 27 22 17 16 12 5 5 7 7 10 18 18 16 15 12 19
25 24 23 23 24 25 25 26 25 24 24 24 26 28 30 31 32 28 28 22 10 21 39 33 47 30 45 34 29 36 25 24 19 15 11 10 5 3 5 10 13 12 17 19 15 9 15
26 24 23 22 23 25 25 26 26 25 24 25 25 27 30 30 32 29 26 23 10 16 37 44 42 40 41 30 25 37 32 23 17 11 24 9 12 15 11 11 9 12 8 10 10 9 11
26 25 23 23 24 24 26 28 27 25 24 25 24 27 28 29 32 30 26 24 13 14 28 41 36 37 38 29 26 35 35 24 23 16 13 28 25 16 13 10 10 10 11 10 6 4 7
26 25 24 23 23 25 27 28 27 25 25 24 24 26 27 28 29 28 20 27 16 10 19 38 37 40 43 33 35 43 41 23 19 14 17 23 23 20 11 8 6 5 7 9 10 10 9
23 26 24 23 22 24 28 30 29 27 26 24 24 24 25 28 29 28 19 29 17 9 8 29 35 32 37 34 31 36 41 25 22 22 19 13 32 26 8 7 6 1 4 8 4 6 5
22 25 24 23 22 24 28 30 30 28 27 25 24 23 25 28 29 26 24 28 19 7 6 20 32 30 27 32 33 36 39 18 21 21 17 17 35 27 29 12 10 2 4 7 4 6 10
22 23 25 23 22 23 26 29 30 30 28 25 24 21 24 24 27 29 28 12 24 8 4 16 25 27 32 30 29 34 39 39 28 26 20 14 24 23 34 11 7 8 6 2 3 2 2
21 23 26 25 22 23 25 27 29 32 29 25 23 20 24 22 27 30 24 12 6 12 13 21 27 30 30 31 32 32 43 44 42 23 32 21 26 23 35 20 15 12 6 3 4 2 3
20 23 27 23 22 23 26 28 28 31 32 23 22 19 25 23 27 27 21 23 16 8 18 23 19 26 27 31 31 30 36 42 41 32 12 23 18 31 31 27 15 17 9 3 4 1 1
19 22 26 23 22 22 24 26 28 30 33 23 21 16 23 24 26 25 26 29 12 15 20 24 17 23 28 27 23 23 24 37 35 33 19 16 9 23 27 27 20 9 11 7 3 3 6
17 23 24 23 23 24 24 24 26 28 33 23 21 16 25 24 21 24 27 24 17 21 21 23 23 24 27 28 24 22 28 28 33 31 21 15 8 19 29 28 29 20 12 6 7 4 2
16 22 25 23 23 25 25 25 24 26 29 28 20 17 27 22 20 26 30 21 19 21 24 21 24 22 24 27 20 19 24 16 29 32 24 24 13 11 14 29 31 34 30 7 5 6 3
14 18 25 27 21 23 25 27 26 25 26 31 21 21 25 24 25 29 25 23 21 22 20 22 24 25 27 27 17 18 21 21 25 29 25 25 14 9 10 13 24 30 31 20 5 5 5
14 16 22 23 23 23 26 29 27 26 25 26 28 26 17 29 25 25 24 24 22 22 20 24 21 25 28 24 14 18 25 19 19 23 24 17 14 11 6 5 13 20 26 23 6 3 8
16 16 19 21 22 24 24 28 30 28 27 26 26 27 27 34 26 26 24 26 25 24 18 22 17 24 26 23 27 18 26 20 17 18 21 15 14 9 5 10 16 17 18 19 15 4 4
19 18 20 23 23 23 26 26 29 29 27 28 24 24 26 31 26 24 29 22 27 28 25 20 19 24 25 22 24 26 27 20 13 15 18 17 12 14 9 9 9 11 14 15 13 9 4
18 18 19 22 23 20 24 25 26 27 28 25 27 27 25 28 28 25 29 28 28 29 23 23 22 23 23 21 24 29 25 16 9 15 17 17 15 18 6 11 10 10 9 11 13 8 5
17 17 18 23 24 22 25 25 26 27 29 30 29 26 24 25 25 27 23 30 36 33 24 24 22 22 19 20 21 25 21 14 15 15 16 16 20 16 5 12 14 8 5 11 12 12 6
17 18 18 22 25 26 27 23 25 27 26 28 29 28 28 26 22 25 29 21 33 37 28 21 22 22 23 23 21 21 15 13 12 13 13 16 18 13 8 13 3 4 10 10 14 9 3
17 17 16 20 23 26 25 21 25 30 27 25 27 29 30 31 23 29 28 24 31 40 29 22 21 21 22 22 22 10 10 7 10 11 14 15 16 8 6 10 14 12 4 10 18 11 4
17 16 15 19 22 26 28 24 25 28 30 23 25 29 31 32 29 32 23 34 39 38 26 21 22 22 20 21 17 7 5 9 7 11 13 18 16 9 6 4 5 5 9 12 16 5 10
18 18 17 19 20 22 23 24 26 25 29 33 30 28 32 30 27 31 27 35 39 33 24 21 24 19 22 17 13 7 7 10 7 9 10 18 13 10 11 9 11 13 10 12 4 9 22
21 20 18 18 19 19 23 26 23 25 29 32 35 29 32 31 26 29 27 39 36 25 23 23 23 20 16 14 8 8 9 8 14 23 19 12 8 5 6 8 7 6 12 13 22 21 20
22 22 20 18 18 17 23 24 22 27 30 33 33 32 31 33 33 15 35 35 27 19 20 20 20 22 17 14 17 17 25 23 24 14 21 10 13 16 12 16 30 25 19 22 22 19 20
Wind_Direction
34 33 31 31 30 29 29 25 23 22 21 22 22 22 21 19 15 10 11 21 31 15 12 12 11 14 15 4 8 353 342 337 324 320 317 298 286 266 256 247 241 267 250 252 243 236 233
32 31 30 30 28 27 26 24 21 19 17 18 19 19 18 18 15 12 10 15 31 14 13 15 17 20 14 10 7 351 346 342 333 329 329 309 288 265 257 256 228 244 252 265 273 235 247
28 26 27 28 26 25 24 24 21 17 15 14 16 15 14 16 17 14 8 9 29 13 13 15 21 20 10 12 2 354 350 346 339 343 5 342 299 263 254 269 255 250 276 274 267 246 262
24 23 22 23 24 23 22 21 19 17 14 12 12 13 13 13 15 15 8 6 29 11 18 16 20 17 15 10 2 356 345 350 340 354 8 356 339 258 253 289 230 245 279 289 268 249 275
25 23 20 20 21 21 20 18 16 15 13 12 11 11 11 12 13 14 7 8 36 18 16 20 21 15 9 10 4 358 346 349 341 356 17 0 17 335 302 283 265 246 260 277 299 236 247
23 22 22 20 17 18 17 16 14 12 10 12 11 9 9 10 14 12 4 11 42 26 22 21 20 19 11 14 4 1 5 360 343 351 25 21 21 333 282 258 241 255 250 260 269 240 220
21 20 21 20 18 17 15 13 11 9 8 10 11 10 9 9 15 10 4 12 27 26 22 30 20 14 4 23 13 10 10 4 9 3 35 353 330 354 334 317 308 266 290 291 295 286 225
21 22 21 20 19 19 15 12 11 9 7 8 9 10 11 12 13 9 7 5 23 23 17 27 20 17 12 16 16 20 16 12 10 32 24 28 14 359 313 299 291 269 271 278 318 228 283
20 21 19 20 21 20 17 14 11 9 7 8 6 9 9 14 17 9 8 8 18 24 21 17 11 15 15 15 16 17 12 27 32 34 19 22 8 0 340 309 299 270 276 296 306 300 247
15 17 18 19 21 22 17 15 12 10 9 6 6 7 9 14 17 16 12 13 17 18 25 16 11 11 9 23 20 17 13 28 23 24 23 13 14 23 355 5 351 29 219 277 287 294 267
10 13 17 18 18 17 15 16 16 13 10 7 5 5 10 14 17 14 15 25 22 32 36 359 7 13 17 24 14 17 17 38 32 30 9 10 11 12 16 2 345 339 276 293 298 329 333
8 10 13 15 14 13 12 11 12 13 10 6 5 5 9 10 18 19 17 26 32 52 6 358 7 8 23 26 23 20 18 30 29 38 35 30 12 8 13 10 14 321 327 281 112 75 294
8 8 8 12 10 7 7 7 8 10 8 5 4 5 9 9 21 20 21 28 38 48 351 347 6 11 18 13 23 20 21 23 24 15 20 24 24 17 5 37 42 36 57 34 43 58 238
9 7 3 6 8 7 3 1 5 8 6 5 7 8 8 14 22 21 21 42 59 11 14 11 8 21 19 12 16 17 25 24 20 15 18 9 9 13 12 26 349 24 34 73 166 135 93
7 1 1 4 5 7 5 360 2 7 11 11 11 16 12 17 21 19 25 46 44 23 7 8 14 11 18 16 9 8 13 20 17 12 15 356 21 26 29 32 28 21 27 14 324 295 81
1 360 4 5 5 12 10 5 3 5 11 14 15 22 18 20 21 20 27 49 40 28 19 15 14 11 5 9 13 17 10 11 13 12 12 358 330 13 29 36 48 43 44 44 8 37 41
357 0 5 2 2 7 11 10 7 4 7 14 17 25 21 23 22 21 33 35 25 19 17 15 12 9 8 4 9 10 8 7 10 14 10 5 5 10 31 30 28 33 33 51 58 20 359
353 357 4 6 360 6 10 9 8 9 9 17 23 25 22 18 16 25 24 20 15 11 9 8 11 9 5 5 2 7 3 4 5 9 9 1 356 342 2 28 29 35 29 29 48 347 44
346 346 356 2 6 6 11 10 6 9 10 13 25 26 19 14 20 20 21 15 11 6 3 3 1 6 1 1 353 356 358 354 1 5 12 13 358 346 356 354 7 18 26 24 51 71 30
336 338 344 349 358 6 4 5 5 6 10 13 13 24 19 12 14 14 11 14 10 4 0 353 352 354 356 356 355 346 349 349 357 2 5 6 5 354 256 301 317 331 1 18 21 26 334
327 331 337 336 339 354 360 357 3 4 7 11 14 16 17 10 14 9 5 2 9 0 355 352 346 348 350 347 347 341 345 346 348 354 360 1 354 348 331 340 324 332 348 359 354 11 353
321 327 334 337 334 350 354 358 3 5 8 5 18 14 13 16 15 16 14 12 358 357 352 348 341 341 342 335 336 333 336 340 334 350 347 357 348 343 346 359 336 322 338 358 343 320 337
323 322 323 329 346 355 350 360 1 5 4 9 12 14 7 10 12 11 9 14 9 355 351 347 338 335 340 338 331 329 330 326 325 328 345 345 348 346 328 329 310 294 3 1 348 332 302
310 315 312 323 345 348 344 358 356 355 359 3 8 8 8 2 356 355 357 343 355 353 348 348 339 335 339 338 336 331 321 315 325 325 332 339 343 339 306 338 353 305 321 328 345 335 303
300 303 307 321 339 341 346 343 4 1 353 356 3 4 5 2 360 359 355 349 344 348 350 350 343 341 341 341 341 337 316 313 325 329 330 340 340 328 301 302 291 287 306 329 337 338 358
292 297 298 319 324 343 344 350 352 352 359 355 356 358 358 359 355 353 358 354 350 350 354 352 348 345 343 342 342 318 322 310 325 313 318 331 323 303 276 272 233 280 309 322 329 300 332
277 288 287 288 326 330 344 334 336 338 342 351 350 350 350 351 349 352 354 353 349 346 346 348 350 347 341 341 331 318 294 306 308 302 301 315 300 283 268 252 266 293 300 309 319 311 325
269 286 286 290 315 320 328 328 328 332 340 339 347 345 348 348 344 340 343 349 346 344 342 347 349 342 341 340 327 326 288 294 294 302 302 297 294 279 277 252 289 286 313 298 309 309 315
269 286 282 285 310 311 313 317 331 333 333 335 335 335 333 343 341 330 343 344 343 333 336 344 341 337 324 320 314 311 297 299 298 293 303 284 290 291 275 275 299 303 300 300 303 299 306